Regional Weather Roundup
Issued by NWS

Home | Current Version | Previous Version | Graphics & Text | Print | Product List | Glossary On
Versions: 1 2 3 4 5 6 7 8 9 10 11 12 13 14 15 16 17 18 19 20 21 22 23 24 25 26 27 28 29 30 31 32 33 34 35 36 37 38 39 40 41 42 43 44 45 46 47 48 49 50
000
ASUS43 KOAX 021702
RWRNE

WEATHER ROUNDUP FOR NEBRASKA
NATIONAL WEATHER SERVICE OMAHA NE
1100 AM CST MON MAR 02 2015

NOTES: SATELLITE DATA IS BEING USED TO AUGMENT CLOUD COVER ABOVE
       12000 FEET.
       "FAIR" INDICATES FEW OR NO CLOUDS BELOW 12,000 FEET WITH NO
       SIGNIFICANT WEATHER AND/OR OBSTRUCTIONS TO VISIBILITY.

  * THESE STATIONS DO NOT REPORT WEATHER SUCH AS RAIN...SNOW OR FOG.

NEZ001>004-019>022-054>056-021800-
NEBRASKA PANHANDLE

CITY           SKY/WX    TMP DP  RH WIND       PRES   REMARKS
SCOTTSBLUFF    SUNNY     36  22  56 S21G26    29.95F WCI  25
ALLIANCE       CLOUDY    34  18  52 S28G33    29.97F WCI  21
CHADRON        SUNNY     39  22  50 S26G38    29.92F WCI  28
KIMBALL        CLOUDY    29  22  73 S16       29.92F WCI  18
SIDNEY         CLOUDY    31  20  63 S18       29.98F WCI  19
$$

NEZ057>060-069>072-079>082-021800-
SOUTHWEST NEBRASKA

CITY           SKY/WX    TMP DP  RH WIND       PRES   REMARKS
NORTH PLATTE   MOSUNNY   35  12  38 S26G36    30.16F WCI  22
IMPERIAL         N/A     31  19  61 S22G30    30.12F WCI  18
LEXINGTON      CLOUDY    35  15  44 S25G33    30.23F WCI  22
MCCOOK         CLOUDY    34  18  52 S21G26    30.21F WCI  22
$$

NEZ005>010-023>029-035>040-094-021800-
NORTH CENTRAL NEBRASKA

CITY           SKY/WX    TMP DP  RH WIND       PRES   REMARKS
VALENTINE      CLOUDY    35  16  45 S23G35    30.10F WCI  23
AINSWORTH      CLOUDY    33  17  51 S24       30.13F WCI  20
BROKEN BOW     CLOUDY    37  17  44 S25G36    30.20F WCI  25
ORD            CLOUDY    34  19  54 S20G26    30.25F WCI  23
$$

NEZ041-046>049-061>064-073>077-083>087-021800-
SOUTH CENTRAL NEBRASKA

CITY           SKY/WX    TMP DP  RH WIND       PRES   REMARKS
GRAND ISLAND   MOSUNNY   38  21  50 S22G28    30.30F WCI  27
AURORA         PTSUNNY   36  21  55 S17       30.30F WCI  26
HASTINGS       MOSUNNY   36  18  48 S17G25    30.28F WCI  26
HEBRON         PTSUNNY   36  19  51 S14       30.36F WCI  27
KEARNEY *      MOSUNNY   36  18  48 S26G33    30.26F WCI  23
$$

NEZ011>018-030>034-042>045-021800-
NORTHEAST NEBRASKA

CITY           SKY/WX    TMP DP  RH WIND       PRES   REMARKS
NORFOLK        CLOUDY    32  14  47 SE14      30.33F WCI  22
ALBION         CLOUDY    32  17  53 SE16      30.30F WCI  21
BLAIR          CLOUDY    31  18  57 SE13      30.40F WCI  22
COLUMBUS *     CLOUDY    34  16  47 SE13      30.36F WCI  25
FREMONT        CLOUDY    32  18  57 SE12      30.39F WCI  23
TEKAMAH        CLOUDY    30  18  60 SE14      30.42F WCI  19
$$

NEZ050>053-065>068-078-088>093-021800-
SOUTHEAST NEBRASKA

CITY           SKY/WX    TMP DP  RH WIND       PRES   REMARKS
LINCOLN        CLOUDY    35  21  56 S8        30.40F WCI  29
OMAHA EPPLEY   CLOUDY    30  18  60 SE10      30.44F WCI  21
BEATRICE       CLOUDY    37  23  56 S12       30.39F WCI  30
FALLS CITY     PTSUNNY   39  23  52 S13G21    30.44F WCI  31
NEBRASKA CITY  CLOUDY    33  19  55 SE8       30.43F WCI  26
$$

NEZ044-045-051>053-067-021800-
OMAHA AREA

CITY           SKY/WX    TMP DP  RH WIND       PRES   REMARKS
OMAHA EPPLEY   CLOUDY    30  18  60 SE10      30.44F WCI  21
BLAIR          CLOUDY    31  18  57 SE13      30.40F WCI  22
FREMONT        CLOUDY    32  18  57 SE12      30.39F WCI  23
OFFUTT AFB     CLOUDY    31  18  58 E13       30.43F WCI  21
WAHOO          CLOUDY    32  18  56 SE13      30.40F WCI  22
$$


USA.gov is the U.S. government's official web portal to all federal, state and local government web resources and services.